Preview of NWS' New Version of Forecast
This preview is not operational and should not be used for support decisions.

Regional Weather Roundup (RWR)

Issued by National Weather Service (NWS)

                            
000
ASUS43 KMKX 172200
RWRWI 

WISCONSIN REGIONAL WEATHER ROUNDUP
NATIONAL WEATHER SERVICE MILWAUKEE/SULLIVAN WI
500 PM CDT SAT AUG 17 2019

NOTE: "FAIR" INDICATES FEW OR NO CLOUDS BELOW 12,000 FEET WITH NO
SIGNIFICANT WEATHER AND/OR OBSTRUCTIONS TO VISIBILITY.

WIZ001-002-006>008-014>016-023>028-172300-
NORTHWEST WISCONSIN
  
CITY           SKY/WX    TMP DP  RH WIND       PRES   REMARKS
SUPERIOR ARPT  PTSUNNY   81  60  48 S9        29.75S HX  81           
ASHLAND        FAIR      82  58  43 S8        29.78F HX  82           
HAYWARD        FAIR      80  57  45 S12       29.81F HX  80           
SIREN          FAIR      83  57  41 S12       29.80F HX  82           
CUMBERLAND     FAIR      77  55  47 S8G16     29.82S                  
RICE LAKE      FAIR      79  60  51 S8        29.83F HX  80           
CHETEK         FAIR      80  62  53 S6        29.82F HX  81           
LADYSMITH      FAIR      80  60  51 S7        29.85S HX  80           
EAU CLAIRE     NOT AVBL                                               
MENOMONIE      FAIR      78  57  48 S8        29.81F                  
NEW RICHMOND   FAIR      80  54  40 SE9       29.81F HX  80           
OSCEOLA        FAIR      81  61  51 S12       29.82F HX  81           
$$
 
WIZ003>005-009-010-017-018-172300-
NORTH CENTRAL WISCONSIN
  
CITY           SKY/WX    TMP DP  RH WIND       PRES   REMARKS
MANITOWISH WTR FAIR      79  58  49 S6        29.84S HX  80           
ARBOR VITAE    FAIR      80  59  48 S6        29.84F HX  80           
WOODRUFF       FAIR      80  59  48 S6        29.84F HX  80           
RHINELANDER    FAIR      79  59  50 SW7       29.86F HX  80           
EAGLE RIVER    FAIR      78  56  45 CALM      29.84F                  
LAND O LAKES   FAIR      80  56  43 S5        29.86F HX  80           
PHILLIPS       FAIR      77  60  56 SW6       29.83F                  
TOMAHAWK       FAIR      76  61  60 CALM      29.85F                  
MEDFORD        FAIR      76  61  58 S8        29.85F                  
MERRILL        FAIR      80  61  52 SW6       29.85S HX  81           
$$
 
WIZ029-030-035-036-043>047-172300-
CENTRAL WISCONSIN
  
CITY           SKY/WX    TMP DP  RH WIND       PRES   REMARKS
WAUSAU         FAIR      78  58  49 SE5       29.83F                  
MOSINEE        MOSUNNY   77  61  57 CALM      29.86F                  
MARSHFIELD     FAIR      79  61  53 SE9       29.84F HX  80           
STEVENS POINT  FAIR      77  59  52 SE6       29.86S                  
WAUPACA        FAIR      83  60  45 SE3       29.86S HX  83           
WAUTOMA        FAIR      79  61  53 SE6       29.86S HX  80           
WISC RAPIDS    FAIR      80  58  46 SE5       29.85F HX  80           
CAMP DOUGLAS   FAIR      80  64  57 S8        29.85S HX  82           
$$
 
WIZ011>013-019>022-031-037>040-048>050-172300-
NORTHEAST WISCONSIN
  
CITY           SKY/WX    TMP DP  RH WIND       PRES   REMARKS
ANTIGO         FAIR      77  58  51 S7        29.86F                  
SHAWANO        FAIR      82  60  48 SE5       29.84F HX  82           
OCONTO         FAIR      78  62  57 SE7       29.85S HX  80           
STURGEON BAY   PTSUNNY   77  66  68 S9        29.87S                  
GREEN BAY      FAIR      80  63  55 CALM      29.86S HX  81           
MANITOWOC      FAIR      74  65  73 SE10      29.88S                  
APPLETON       PTSUNNY   79  54  41 CALM      29.86R                  
CLINTONVILLE   FAIR      81  57  44 SE5       29.85S HX  81           
OSHKOSH        FAIR      79  63  57 E7        29.86S HX  80           
$$
 
WIZ032>034-041-042-053>061-172300-
SOUTHWEST WISCONSIN
  
CITY           SKY/WX    TMP DP  RH WIND       PRES   REMARKS
LA CROSSE      FAIR      82  59  45 S10G21    29.82F HX  82           
SPARTA         FAIR      79  60  52 S7        29.85S HX  80           
VIROQUA        FAIR      77  64  63 S7        29.87F                  
BOSCOBEL       PTSUNNY   82  64  54 VRB5      29.84F HX  83           
PRAIRIE DU CHI PTSUNNY   79  64  59 SE3       29.83F HX  81           
PLATTEVILLE    FAIR      78  69  74 S8        29.87S HX  80           
$$

WIZ056-057-062-063-064-067-068-172300-
SOUTH CENTRAL WISCONSIN
  
CITY           SKY/WX    TMP DP  RH WIND       PRES   REMARKS
REEDSBURG      FAIR      77  64  64 S5        29.86S                  
BARABOO/DELLS  FAIR      77  63  62 S7        29.87S                  
LONE ROCK      NOT AVBL                                               
MINERAL POINT  PTSUNNY   81  70  69 MISG      29.88R HX  84           
MADISON        PTSUNNY   80  61  52 SE13      29.85F HX  81           
MIDDLETON      PTSUNNY  N/A N/A N/A S8        29.87S                  
WATERTOWN      FAIR      80  63  55 CALM      29.87R HX  81           
MONROE         FAIR      78  65  63 S5        29.87F HX  80           
JANESVILLE     PTSUNNY   81  64  57 SE8       29.87F HX  82           
$$
 
WIZ051-052-058>065-066-070>072-172300-
SOUTHEAST WISCONSIN
  
CITY           SKY/WX    TMP DP  RH WIND       PRES   REMARKS
MILWAUKEE      PTSUNNY   77  66  68 S13       29.88S                  
WAUKESHA       SUNNY     77  64  65 SE12G18   29.89R                  
MILWAUKEE/TIMM MOSUNNY   75  61  60 SE10      29.89R                  
RACINE         FAIR      76  67  73 S9        29.90S                  
KENOSHA        FAIR      76  70  82 S8        29.88F                  
FOND DU LAC    FAIR      83  62  49 MISG      29.87S HX  84           
SHEBOYGAN      FAIR      76  62  62 SE10      29.88R                  
WEST BEND      FAIR      73  63  68 SE8       29.88R                  
JUNEAU         FAIR      79  62  56 SE3       29.88S HX  80           
$$

LSZ147-162-172300-
LAKE SUPERIOR
  
STATION/POSITION TIME  TEMP    WIND        PRES    WAVE
                       AIR SEA DIR/SP/G            HT/PER
                 (UTC) (F)     (DEG/KT/KT) (MB)    (FT/S)
W MID LAKE BUOY  2050   69 68     CALM     1008.5F   1
DEVILS ISLAND    2100   71     100/  6/  7 1008.2F
SAXON HARBOR     2130   83     210/  7/ 11 1008.1F
$$
 
LMZ867-665-643>646-172300-
LAKE MICHIGAN
  
STATION/POSITION TIME  TEMP    WIND        PRES    WAVE
                       AIR SEA DIR/SP/G            HT/PER
                 (UTC) (F)     (DEG/KT/KT) (MB)    (FT/S)
S GREEN BAY BUOY 2130   79 72  150/  6/  6 1011.3F
N MID LAKE BUOY  2140   70 71  180/ 10/ 10 1012.1R
NORTHPORT PIER   2140   71     130/  5/  7 1011.2S
KEWAUNEE LAKESHO 2124   71     180/  7/  9 1011.1
SHEBOYGAN LAKESH 2100   71     130/  8/  8 1011.4F
PORT WASHINGTON  2140   74     140/  3/  5 1012.9R
S MID LAKE BUOY  2140   73 74  170/  6/  6 1012.3F
KENOSHA   LAKESH 2100   74     170/ 11/ 12 1011.9
$$

TC  - TEMPERATURE IN CELSIUS
VSB - VISIBILITY IN STATUTE MILES
WCI - WIND CHILL INDEX
HX  - HEAT INDEX